This is the latest recevied weather packets stored in our database for station/object K3TLB-13. If no packets are shown the sender has not sent any weather packets the latest 10 day(s).
| Time | Temp. | Humidity | Pressure | Rain* | Wind** | Luminosity | Snow |
|---|---|---|---|---|---|---|---|
| 1777673054 | 16.11° C | 42% | 1010.6 hPa | 0 mm | - | - | - |
| 1777672754 | 16.11° C | 42% | 1010.6 hPa | 0 mm | - | - | - |
| 1777672455 | 16.11° C | 42% | 1010.6 hPa | 0 mm | - | - | - |
| 1777672155 | 16.11° C | 41% | 1010.5 hPa | 0 mm | - | - | - |
| 1777671911 | 16.67° C | 42% | 1010.4 hPa | 0 mm | - | - | - |
| 1777671854 | 16.67° C | 42% | 1010.4 hPa | 0 mm | - | - | - |
| 1777671555 | 16.67° C | 40% | 1010.4 hPa | 0 mm | - | - | - |
| 1777671254 | 16.67° C | 42% | 1010.3 hPa | 0 mm | - | - | - |
| 1777670954 | 16.67° C | 40% | 1010.4 hPa | 0 mm | - | - | - |
| 1777670709 | 16.67° C | 41% | 1010.2 hPa | 0 mm | - | - | - |
| 1777670654 | 16.67° C | 41% | 1010.2 hPa | 0 mm | - | - | - |
| 1777670354 | 16.67° C | 41% | 1010.3 hPa | 0 mm | - | - | - |
| 1777670054 | 16.67° C | 42% | 1010.3 hPa | 0 mm | - | - | - |
| 1777669754 | 16.67° C | 41% | 1010.3 hPa | 0 mm | - | - | - |
| 1777669454 | 16.67° C | 44% | 1010.3 hPa | 0 mm | - | - | - |
| 1777669154 | 16.67° C | 42% | 1010.4 hPa | 0 mm | - | - | - |
| 1777668854 | 17.22° C | 40% | 1010.4 hPa | 0 mm | - | - | - |
| 1777668554 | 17.22° C | 42% | 1010.5 hPa | 0 mm | - | - | - |
| 1777668254 | 17.22° C | 41% | 1010.4 hPa | 0 mm | - | - | - |
| 1777667954 | 17.22° C | 43% | 1010.8 hPa | 0 mm | - | - | - |
| 1777667654 | 16.67° C | 41% | 1010.9 hPa | 0 mm | - | - | - |
| 1777667354 | 17.22° C | 40% | 1010.9 hPa | 0 mm | - | - | - |
| 1777667054 | 17.22° C | 40% | 1010.9 hPa | 0 mm | - | - | - |
| 1777666754 | 17.22° C | 40% | 1010.9 hPa | 0 mm | - | - | - |
| 1777666509 | 17.78° C | 40% | 1010.9 hPa | 0 mm | - | - | - |
* Rain latest hour (hover to see other rain measurements)
** Current wind speed in m/s (hover to see current wind gust speed)